This demonstration page uses our WeatherBlox Daily Observations layout. Learn more.

38.88101, -77.10428

Hourly Observations for September 1, 2018

Temp ( °F °C ) Dew Point ( °F °C ) Humidity (%) Winds ( mph kmh ) Pressure ( in mb ) Visibility ( mi km ) Precip ( " mm )
12:04 am 00:04 Cloudy with Light Thunderstorms 76 24.4 70 21.1 82 82 E 3 6 30.21 1023 10 16.0934 0.01 0.254
12:25 am 00:25 Cloudy with Light Rain 76 24.4 70 21.1 82 82 NE 3 6 30.21 1023 10 16.0934 0.01 0.254
12:36 am 00:36 Mostly Cloudy 76 24.4 71 21.7 85 85 NE 6 9 30.21 1023 10 16.0934 0.01 0.254
12:52 am 00:52 Mostly Cloudy 76 24.4 71 21.7 85 85 NE 7 11 30.2 1023 10 16.0934 0.01 0.254
1:45 am 01:45 Cloudy 75 23.9 71 21.7 88 88 NE 9 15 30.21 1023 10 16.0934 0 0.0254
1:52 am 01:52 Cloudy 75 23.9 71 21.7 88 88 NE 9 15 30.21 1023 10 16.0934 0 0.0254
2:10 am 02:10 Cloudy 75 23.9 71 21.7 88 88 NE 7 11 30.21 1023 10 16.0934 0 0
2:31 am 02:31 Cloudy 75 23.9 71 21.7 88 88 ENE 7 11 30.21 1023 10 16.0934 0 0
2:41 am 02:41 Cloudy 75 23.9 71 21.7 88 88 NE 6 9 30.21 1023 10 16.0934 0 0
2:52 am 02:52 Cloudy 75 23.9 71 21.7 88 88 ENE 9 15 30.2 1023 10 16.0934 0 0
3:21 am 03:21 Cloudy 76 24.4 72 22.2 88 88 ENE 12 19 30.21 1023 10 16.0934 0 0
3:43 am 03:43 Cloudy 76 24.4 72 22.2 88 88 ENE 9 15 30.21 1023 10 16.0934 0 0
3:52 am 03:52 Cloudy 76 24.4 72 22.2 88 88 ENE 9 15 30.21 1023 10 16.0934 0 0
4:27 am 04:27 Cloudy with Light Rain 77 25 73 22.8 88 88 ENE 13 20 30.21 1023 10 16.0934 0 0.0254
4:35 am 04:35 Cloudy with Light Rain 76 24.4 73 22.8 91 91 NE 10 17 30.21 1023 10 16.0934 0 0.0254
4:52 am 04:52 Cloudy 77 25 73 22.8 88 88 NE 8 13 30.2 1023 10 16.0934 0 0.0254
5:06 am 05:06 Cloudy with Rain 76 24.4 73 22.8 91 91 E 5 7 30.21 1023 1.75 2.816345 0.2 5.08
5:15 am 05:15 Cloudy with Rain 76 24.4 73 22.8 91 91 NE 5 7 30.21 1023 3 4.82802 0.28 7.112
5:29 am 05:29 Cloudy with Light Rain 76 24.4 73 22.8 91 91 NE 7 11 30.21 1023 9 14.48406 0.29 7.366
5:52 am 05:52 Cloudy 76 24.4 73 22.8 91 91 ENE 10 17 30.21 1023 10 16.0934 0.29 7.366
6:19 am 06:19 Cloudy 76 24.4 73 22.8 91 91 ENE 9 15 30.21 1023 10 16.0934 0 0
6:52 am 06:52 Cloudy with Light Rain 76 24.4 73 22.8 91 91 NE 9 15 30.24 1024 10 16.0934 0 0.0254
7:13 am 07:13 Cloudy with Light Rain 76 24.4 73 22.8 91 91 NE 12 19 30.24 1024 10 16.0934 0 0.0254
7:23 am 07:23 Cloudy with Light Rain 76 24.4 73 22.8 91 91 ENE 12 19 30.24 1024 7 11.26538 0.01 0.254
7:33 am 07:33 Cloudy with Rain 76 24.4 73 22.8 91 91 ENE 12 19 30.24 1024 5 8.0467 0.03 0.762
7:42 am 07:42 Cloudy with Rain 76 24.4 73 22.8 91 91 NE 8 13 30.24 1024 5 8.0467 0.04 1.016
7:52 am 07:52 Cloudy with Light Rain 76 24.4 73 22.8 91 91 NE 9 15 30.24 1024 8 12.87472 0.05 1.27
8:52 am 08:52 Cloudy 77 25 73 22.8 88 88 ENE 9 15 30.24 1024 9 14.48406 0 0.0254
9:05 am 09:05 Cloudy 77 25 73 22.8 88 88 NE 12 19 30.24 1024 10 16.0934 0 0
9:32 am 09:32 Cloudy 78 25.6 74 23.3 87 87 NE 10 17 30.24 1024 10 16.0934 0 0
9:34 am 09:34 Cloudy 78 25.6 74 23.3 87 87 NE 10 17 30.24 1024 10 16.0934 0 0
9:36 am 09:36 Cloudy 78 25.6 74 23.3 87 87 NE 13 20 30.24 1024 10 16.0934 0 0
9:52 am 09:52 Cloudy 78 25.6 73 22.8 85 85 NE 12 19 30.24 1024 10 16.0934 0 0
10:43 am 10:43 Cloudy 80 26.7 73 22.8 79 79 NE 10 17 30.24 1024 10 16.0934 0 0
10:52 am 10:52 Cloudy 80 26.7 73 22.8 79 79 NE 9 15 30.25 1024 10 16.0934 0 0
11:34 am 11:34 Cloudy 82 27.8 73 22.8 74 74 NE 9 15 30.24 1024 10 16.0934 0 0
11:52 am 11:52 Mostly Cloudy 83 28.3 74 23.3 74 74 NE 8 13 30.25 1024 10 16.0934 0 0
11:54 am 11:54 Mostly Cloudy 83 28.3 74 23.3 74 74 NE 9 15 30.24 1024 10 16.0934 0 0
12:24 pm 12:24 Mostly Cloudy 83 28.3 73 22.8 72 72 NE 6 9 30.24 1024 10 16.0934 0 0
12:52 pm 12:52 Mostly Cloudy 83 28.3 73 22.8 72 72 NNE 8 13 30.25 1024 10 16.0934 0 0
12:54 pm 12:54 Mostly Cloudy 83 28.3 73 22.8 72 72 NE 7 11 30.24 1024 10 16.0934 0 0
12:56 pm 12:56 Mostly Cloudy 83 28.3 73 22.8 72 72 NE 8 13 30.24 1024 10 16.0934 0 0
1:10 pm 13:10 Mostly Cloudy 84 28.9 73 22.8 70 70 NNE 8 13 30.24 1024 10 16.0934 0 0
1:52 pm 13:52 Partly Cloudy 87 30.6 73 22.8 63 63 NE 7 11 30.23 1024 10 16.0934 0 0.0254
2:52 pm 14:52 Mostly Cloudy 83 28.3 72 22.2 70 70 S 15 24 30.22 1023 10 16.0934 0 0
3:10 pm 15:10 Mostly Cloudy 80 26.7 71 21.7 74 74 SE 8 13 30.21 1023 10 16.0934 0 0
3:24 pm 15:24 Mostly Cloudy with Light Rain 78 25.6 71 21.7 79 79 VRB 5 7 30.21 1023 10 16.0934 0 0.0254
3:32 pm 15:32 Mostly Cloudy with Light Rain 81 27.2 72 22.2 74 74 ESE 12 19 30.21 1023 10 16.0934 0 0.0254
3:52 pm 15:52 Mostly Cloudy 82 27.8 72 22.2 72 72 E 9 15 30.2 1023 10 16.0934 0 0.0254
4:06 pm 16:06 Mostly Cloudy with Nearby Thunderstorms 82 27.8 71 21.7 69 69 E 9 15 30.21 1023 10 16.0934 0 0
4:38 pm 16:38 Mostly Cloudy with Thunderstorms 84 28.9 71 21.7 65 65 E 7 11 30.21 1023 10 16.0934 0 0
4:52 pm 16:52 Partly Cloudy with Nearby Thunderstorms 84 28.9 72 22.2 67 67 ENE 7 11 30.19 1023 10 16.0934 0 0
5:06 pm 17:06 Partly Cloudy with Thunderstorms 84 28.9 74 23.3 72 72 E 7 11 30.18 1022 10 16.0934 0 0
5:20 pm 17:20 Partly Cloudy 84 28.9 74 23.3 72 72 ENE 7 11 30.18 1022 10 16.0934 0 0
5:52 pm 17:52 Mostly Cloudy 83 28.3 74 23.3 74 74 E 9 15 30.19 1022 10 16.0934 0 0
6:14 pm 18:14 Mostly Cloudy with Nearby Thunderstorms 83 28.3 74 23.3 74 74 ENE 10 17 30.18 1022 10 16.0934 0 0
6:33 pm 18:33 Mostly Cloudy 83 28.3 73 22.8 72 72 E 7 11 30.21 1023 10 16.0934 0 0
6:52 pm 18:52 Mostly Cloudy 82 27.8 73 22.8 74 74 E 7 11 30.2 1023 10 16.0934 0 0
7:52 pm 19:52 Mostly Cloudy 82 27.8 74 23.3 77 77 E 5 7 30.22 1023 10 16.0934 0 0
8:06 pm 20:06 Cloudy with Thunderstorms 82 27.8 74 23.3 77 77 E 5 7 30.21 1023 10 16.0934 0 0
8:34 pm 20:34 Cloudy with Thunderstorms 81 27.2 74 23.3 79 79 ENE 7 11 30.21 1023 10 16.0934 0 0
8:52 pm 20:52 Cloudy with Thunderstorms 81 27.2 74 23.3 79 79 E 9 15 30.22 1023 10 16.0934 0 0
9:17 pm 21:17 Mostly Cloudy with Thunderstorms 80 26.7 74 23.3 82 82 ESE 13 20 30.21 1023 10 16.0934 0 0
9:30 pm 21:30 Cloudy with Heavy Thunderstorms 76 24.4 72 22.2 88 88 S 20 31 30.24 1024 2.5 4.02335 0.05 1.27
9:40 pm 21:40 Cloudy with Heavy Thunderstorms 75 23.9 71 21.7 88 88 S 9 15 30.24 1024 2.5 4.02335 0.32 8.128
9:44 pm 21:44 Cloudy with Heavy Thunderstorms 75 23.9 70 21.1 84 84 SSW 8 13 30.24 1024 4 6.43736 0.36 9.144
9:52 pm 21:52 Cloudy with Heavy Thunderstorms 75 23.9 71 21.7 88 88 SSW 10 17 30.24 1024 5 8.0467 0.42 10.668
10:13 pm 22:13 Cloudy with Light Thunderstorms 75 23.9 72 22.2 90 90 S 9 15 30.24 1024 7 11.26538 0.05 1.27
10:25 pm 22:25 Cloudy with Light Rain 75 23.9 72 22.2 90 90 S 6 9 30.24 1024 10 16.0934 0.05 1.27
10:52 pm 22:52 Mostly Cloudy with Light Rain 76 24.4 72 22.2 88 88 ENE 5 7 30.23 1024 10 16.0934 0.05 1.27
11:08 pm 23:08 Cloudy 76 24.4 72 22.2 88 88 ESE 5 7 30.21 1023 10 16.0934 0 0.0254
11:52 pm 23:52 Cloudy 75 23.9 70 21.1 84 84 SSE 3 6 30.22 1023 10 16.0934 0 0.0254

Powered by AerisWeather